Wind_Speed
9 9 10 10 8 6 6 6 7 7 7 7 7 7 7 7 7 7 6 6 5 4 4 4 3 4 4 5 5 5 3 2 2 2 1 1 3 4 4 5 7 4 2
14 10 9 9 8 7 7 7 7 7 6 6 6 6 6 6 6 6 5 4 3 3 4 4 2 4 4 4 5 5 4 3 3 3 2 2 2 1 3 4 3 2 2
12 10 9 9 8 8 7 7 6 6 5 6 5 5 5 5 5 5 5 4 3 3 3 3 4 6 5 5 5 5 5 5 5 5 6 5 5 6 4 5 4 3 2
12 10 10 9 8 8 7 7 6 5 5 5 5 5 5 5 5 5 4 3 4 4 5 4 4 7 7 7 7 6 6 6 7 7 6 7 7 9 7 6 7 5 4
13 12 13 13 11 9 8 7 5 5 4 3 4 4 4 5 6 6 5 5 5 6 7 7 7 8 9 9 10 9 8 8 8 7 7 8 8 9 9 8 9 10 8
14 14 12 11 10 8 6 5 4 3 3 4 4 4 4 5 6 6 6 6 6 7 8 8 9 10 10 10 11 10 11 10 10 8 8 9 9 10 11 10 10 10 11
14 12 12 9 8 6 5 4 3 4 4 4 4 4 5 5 6 7 6 7 8 8 8 8 9 9 10 11 12 13 12 12 11 11 11 10 9 13 12 12 11 8 13
11 10 10 9 7 6 4 4 3 3 3 4 4 5 5 6 6 8 9 10 10 11 11 11 11 10 10 11 12 13 14 14 13 14 12 12 12 13 12 13 13 12 9
10 9 8 8 6 4 4 4 3 3 4 5 5 6 7 8 9 9 10 11 12 13 14 14 14 14 13 13 12 13 13 14 14 15 14 13 14 14 13 13 14 14 14
10 8 7 7 6 6 6 3 4 5 6 6 7 7 8 10 10 10 10 11 11 12 12 13 15 16 16 15 13 13 13 14 15 16 15 14 17 16 15 15 15 15 15
9 7 7 6 6 6 5 6 7 7 7 8 9 10 10 8 9 10 11 11 12 12 12 12 13 14 15 15 15 14 14 13 14 15 15 15 17 17 18 18 17 17 18
9 7 6 6 6 6 6 6 7 7 7 8 8 8 8 8 9 9 11 11 12 12 13 12 13 13 12 10 11 13 11 12 14 15 15 15 16 15 14 16 17 17 18
8 7 6 6 6 6 5 5 5 6 6 6 8 8 8 8 8 8 9 9 10 12 11 12 11 10 11 10 10 10 11 11 12 12 13 14 11 12 12 12 11 12 13
9 7 6 6 5 6 6 5 6 5 5 5 7 8 8 7 7 8 9 9 10 11 12 11 11 12 11 11 10 10 10 10 10 10 11 11 9 9 9 9 9 9 10
8 7 6 5 5 5 5 6 6 5 5 5 6 8 8 7 7 8 8 9 10 11 11 12 12 12 11 11 11 11 10 8 8 9 8 11 8 8 9 9 8 8 8
8 7 6 5 4 5 5 5 4 4 4 5 5 6 7 7 8 8 8 9 10 10 11 11 12 13 12 11 11 10 9 8 7 6 6 6 7 5 5 6 7 8 8
8 7 6 5 4 4 4 3 3 3 4 4 4 6 7 8 8 8 9 10 11 11 12 12 12 11 11 11 12 10 9 7 7 5 5 3 4 6 7 11 11 10 8
9 8 7 4 3 3 2 2 2 2 3 3 4 4 6 7 8 7 8 9 11 11 11 11 12 12 11 12 12 10 8 5 4 4 5 5 5 6 9 12 15 14 15
10 9 7 5 3 2 1 1 1 1 1 2 3 3 4 6 7 7 7 8 9 9 10 11 11 11 11 12 10 7 7 7 7 7 8 9 10 9 9 12 13 10 10
10 9 7 6 4 3 1 1 1 1 1 1 1 2 3 4 6 7 7 7 7 8 9 11 11 11 10 13 8 4 5 6 7 8 8 8 8 9 9 9 8 8 10
11 10 9 7 6 4 2 3 2 2 2 2 2 3 3 4 5 5 6 6 7 8 9 10 11 11 10 14 7 3 1 4 6 5 6 6 6 7 9 9 9 10 10
12 12 10 9 7 5 4 2 2 2 3 4 5 4 4 5 5 4 5 5 6 7 8 10 11 12 9 11 9 6 3 5 1 1 2 4 6 6 7 9 9 10 10
14 14 12 10 8 6 5 3 3 4 4 4 4 4 5 7 6 5 5 5 5 5 6 8 9 9 9 8 8 4 3 3 11 2 2 5 7 7 6 7 8 10 11
15 13 11 10 8 6 6 4 4 4 6 4 5 6 7 8 8 8 7 6 5 5 4 5 6 7 7 9 7 4 5 7 3 4 2 3 4 5 4 4 5 8 10
13 14 12 10 8 7 6 5 4 6 7 7 8 9 9 9 10 10 9 7 5 5 5 5 5 5 5 7 7 9 9 8 9 7 7 6 9 4 4 5 5 8 10
10 12 11 10 8 7 6 6 7 9 9 10 10 11 10 9 9 11 11 10 8 7 6 6 6 5 5 6 7 7 7 5 5 6 6 8 10 7 6 4 5 6 7
Wind_Direction
152 152 149 142 132 122 113 107 101 95 90 85 76 68 60 54 52 55 59 63 65 59 47 38 30 20 21 21 24 28 28 19 11 11 20 99 77 71 44 38 52 29 53
143 145 148 141 132 122 113 106 98 91 85 79 68 58 51 48 45 43 44 50 51 33 15 317 21 4 4 356 349 346 345 326 302 300 288 330 335 19 7 0 24 344 13
137 138 137 139 134 125 115 108 99 87 74 63 51 41 30 27 20 22 21 19 4 347 348 14 338 331 329 335 338 334 321 314 303 287 283 283 281 295 316 326 323 328 325
137 133 128 136 130 122 115 105 100 95 80 67 54 46 31 21 15 5 349 340 340 331 318 301 298 301 304 307 308 311 314 307 300 298 295 277 275 281 287 295 301 298 291
127 116 118 127 123 118 115 111 101 88 75 56 39 27 15 11 3 359 352 342 323 310 302 299 292 288 290 293 294 296 297 296 296 292 282 280 274 272 278 291 291 280 279
105 104 118 125 123 123 116 100 87 64 46 26 17 6 360 355 342 346 343 338 329 318 307 302 295 286 283 286 284 282 284 287 288 280 277 276 276 266 271 274 283 269 262
108 107 104 130 121 118 110 96 63 46 34 20 13 7 359 350 342 338 335 330 327 321 316 315 310 302 291 286 278 279 278 275 272 271 272 271 269 269 272 276 281 288 261
116 113 105 122 118 107 93 89 65 38 22 12 6 357 348 337 328 322 324 318 313 309 307 308 307 304 298 292 286 282 279 276 271 267 263 267 264 274 274 273 271 272 274
117 111 109 109 104 93 83 72 57 30 20 10 2 359 352 345 339 334 330 323 314 310 305 300 297 297 295 293 292 289 283 274 266 268 264 266 272 279 282 279 276 274 273
120 107 103 102 93 82 66 48 30 28 16 19 18 16 13 8 1 354 357 350 343 330 322 310 300 294 292 292 291 289 285 279 272 263 261 260 263 277 281 276 276 276 269
117 114 102 93 87 78 69 53 41 35 36 29 28 26 28 24 15 12 3 2 356 353 349 341 331 318 306 300 291 287 289 281 272 274 270 271 270 281 286 284 277 272 269
121 112 103 97 88 79 68 59 52 48 46 44 38 33 27 21 11 9 1 2 359 359 358 356 351 352 346 318 305 304 289 282 279 272 271 277 279 283 289 290 287 285 278
130 117 110 100 90 80 72 64 56 51 47 41 36 28 21 14 8 1 358 355 354 354 353 352 350 347 343 336 324 310 292 288 283 282 281 280 287 290 301 298 298 298 290
134 127 121 107 92 79 71 64 57 59 56 44 29 23 21 10 7 3 360 354 354 351 347 346 341 338 338 334 331 326 315 295 283 284 288 299 293 295 304 306 308 312 311
145 144 139 120 100 83 76 70 68 64 53 36 27 22 28 14 9 8 1 360 356 352 347 342 338 334 330 328 331 328 322 314 298 285 286 301 299 291 292 301 312 314 316
157 160 151 130 111 89 80 77 75 63 50 40 33 28 25 19 14 9 5 3 359 354 348 340 336 332 330 327 324 323 321 324 323 311 294 304 317 323 336 357 357 352 346
171 172 160 147 122 96 83 78 67 58 54 45 39 36 31 24 15 14 10 7 1 354 349 344 340 338 335 332 326 324 323 320 330 332 326 325 333 4 32 37 28 20 12
181 177 172 161 137 110 96 83 70 57 52 47 41 33 29 21 20 16 16 10 1 358 355 353 347 345 342 339 334 335 337 337 5 39 40 40 37 30 29 39 42 43 37
190 181 172 173 158 144 144 118 39 37 50 39 34 24 17 15 15 16 15 9 6 2 359 355 353 349 349 349 343 355 28 61 66 62 58 55 48 42 25 6 24 18 33
193 188 183 185 181 173 196 264 260 237 269 272 343 354 2 2 7 12 3 4 7 3 1 355 350 354 357 354 346 9 44 63 64 59 55 52 43 33 22 12 10 5 353
198 192 193 191 190 187 210 223 214 230 244 246 273 315 326 334 351 2 353 356 2 2 359 354 349 349 1 1 348 327 194 84 68 66 60 56 40 34 32 28 21 13 0
203 201 198 196 194 202 208 221 219 243 254 264 275 286 299 316 322 337 337 347 356 359 354 353 357 354 356 8 354 305 296 207 193 32 42 20 13 8 12 22 24 19 11
208 203 202 198 198 207 211 227 254 284 289 287 272 272 282 294 299 314 316 331 340 350 351 351 353 0 347 351 1 355 317 337 334 195 348 3 359 358 356 4 17 19 15
211 203 198 196 203 213 216 224 244 277 283 277 276 274 274 282 285 293 295 303 314 325 331 334 342 346 343 336 345 341 293 291 306 306 233 279 339 336 341 353 8 12 14
208 200 195 195 204 210 219 233 252 266 274 280 276 272 268 270 278 276 278 276 280 291 300 309 324 327 322 316 321 324 320 303 274 282 306 325 325 313 328 343 1 360 7
191 188 187 194 205 213 226 245 256 268 278 278 278 276 275 265 261 267 270 267 269 271 270 278 289 288 286 286 288 294 298 301 311 301 302 312 312 311 315 324 353 0 3
Height
829 831 832 833 835 836 836 836 837 837 837 836 837 836 836 835 834 833 833 832 831 830 829 828 828 827 826 825 824 823 822 822 821 820 820 819 819 818 818 817 816 817 815
828 831 833 834 835 837 837 837 837 837 837 837 837 837 837 836 835 834 834 833 832 832 830 828 828 827 826 825 825 824 823 822 821 820 820 820 819 819 818 817 817 817 815
829 832 834 835 836 838 838 838 838 838 838 838 838 838 837 837 836 835 834 833 833 832 831 830 829 828 826 825 825 824 823 822 821 820 820 821 820 819 819 818 817 816 816
831 833 835 836 837 838 839 839 839 839 839 838 838 838 837 836 836 835 834 833 832 831 830 830 829 828 827 826 824 823 822 822 821 820 820 820 819 818 817 817 817 817 816
832 834 835 836 837 838 839 839 839 839 839 839 838 838 837 836 835 834 833 832 831 830 829 828 828 827 826 825 824 823 822 821 820 819 819 819 818 817 815 815 816 816 815
833 835 836 837 838 839 839 840 840 840 839 839 838 838 837 836 835 834 833 832 830 829 828 827 826 825 824 823 822 821 821 820 818 819 818 817 815 815 813 813 813 813 814
836 838 838 838 839 840 840 840 841 840 840 839 838 838 837 835 835 833 832 831 829 828 826 825 824 823 822 821 820 819 818 818 817 816 816 814 813 812 811 811 811 811 811
837 839 839 839 840 841 841 841 841 840 840 839 838 837 836 835 834 832 831 830 828 827 825 824 822 821 820 819 818 817 816 816 816 814 813 812 811 810 809 809 809 809 809
838 840 840 840 841 841 841 841 840 840 839 838 838 836 835 835 833 832 830 829 827 825 824 822 820 819 817 816 815 814 814 813 813 812 811 810 809 808 807 807 807 807 808
838 840 841 841 842 842 842 841 840 840 839 838 837 836 835 834 833 831 829 827 826 824 822 820 818 816 815 814 813 811 810 810 809 808 807 807 806 806 805 804 804 804 804
839 841 841 842 842 843 842 842 841 840 840 839 837 836 836 835 834 832 829 827 825 823 821 819 816 814 812 811 810 809 808 808 806 805 805 804 804 803 802 802 801 800 800
840 842 842 842 842 842 842 842 842 842 841 841 840 838 837 836 833 832 829 827 825 822 819 817 815 813 811 810 809 807 807 806 805 803 803 801 801 800 799 799 798 797 796
840 842 842 842 842 842 842 843 843 843 843 843 841 840 838 836 835 833 831 828 826 823 821 818 816 814 812 810 808 807 805 804 803 802 801 799 798 798 798 796 795 794 793
841 842 843 842 843 842 842 843 843 844 844 843 841 840 838 838 835 834 832 829 827 824 821 819 816 814 812 810 808 806 804 803 801 800 799 797 796 796 796 795 794 793 792
842 842 843 842 843 842 843 843 844 844 844 843 841 839 838 838 836 834 832 830 828 825 822 819 816 813 811 809 807 805 803 801 800 799 798 796 795 795 794 793 793 792 791
841 842 842 842 842 842 843 843 844 844 843 842 841 840 838 838 836 835 833 831 828 825 822 819 816 813 811 808 806 804 802 801 799 798 797 797 795 795 794 793 792 791 790
840 841 842 842 842 842 843 844 844 844 843 842 841 840 839 838 837 835 834 832 829 826 823 820 817 814 811 809 806 803 801 800 799 798 798 797 797 795 794 793 792 791 790
839 840 841 841 842 842 843 844 844 843 843 842 841 840 839 838 836 835 833 831 829 827 824 821 818 815 812 809 805 803 801 800 799 798 798 797 798 796 795 793 792 791 790
839 839 840 841 841 842 843 843 843 842 843 842 841 841 839 838 836 835 833 830 829 827 825 822 819 817 813 809 806 804 802 800 800 800 799 799 799 799 798 795 793 791 789
837 838 839 840 841 842 842 842 842 842 842 841 841 840 838 837 835 834 833 831 828 827 825 823 820 817 814 810 807 805 804 802 802 802 801 800 799 798 797 795 793 792 789
835 836 838 839 840 841 842 843 842 842 841 841 840 838 837 836 835 833 833 832 829 827 825 823 821 818 814 811 808 805 804 804 803 802 801 801 800 800 798 797 796 794 793
832 834 836 838 839 840 841 840 840 840 840 838 838 837 836 835 834 833 833 831 829 827 826 824 822 819 816 814 812 807 801 802 803 803 803 803 802 802 800 798 796 795 793
830 832 835 837 838 838 838 838 839 838 838 838 837 836 835 834 832 831 831 830 829 827 825 824 822 820 818 816 814 813 806 801 803 802 804 803 803 802 801 800 798 795 794
828 831 833 835 836 836 836 838 838 838 838 837 836 835 834 832 831 830 829 827 826 826 824 823 821 820 819 817 815 814 813 811 806 801 801 801 802 801 800 799 798 796 794
826 828 831 833 834 835 835 836 836 836 835 834 833 832 831 828 827 826 825 825 824 823 822 821 819 818 818 818 816 815 813 811 809 806 801 800 801 801 802 800 799 797 796
822 825 828 830 832 833 833 833 833 833 832 831 830 828 827 825 824 822 821 821 820 819 818 818 816 815 816 815 814 813 812 811 808 807 803 801 801 799 800 800 799 798 795